| time (UTC) | temp F | wind direction | speed MPH | gust MPH | rain 1hr in | rain 24hr in | rain mn in | humidity % | barometer mb |
| 20260505234608 | 76 | 320 | 6.0 | 10.0 | 0.00 | 0.00 | 0.00 | 51 | 1015.2 |
| 20260505231536 | 76 | 316 | 6.0 | 12.0 | 0.00 | 0.00 | 0.00 | 51 | 1015.1 |
| 20260505230147 | 76 | 300 | 5.0 | 11.0 | 0.00 | 0.00 | 0.00 | 50 | 1015.3 |
| 20260505224607 | 76 | 319 | 5.0 | 9.0 | 0.00 | 0.00 | 0.00 | 50 | 1015.3 |
| 20260505223029 | 77 | 292 | 6.0 | 14.0 | 0.00 | 0.00 | 0.00 | 48 | 1015.5 |
| 20260505221606 | 77 | 271 | 5.0 | 12.0 | 0.00 | 0.00 | 0.00 | 48 | 1015.6 |
| 20260505220034 | 77 | 216 | 6.0 | 12.0 | 0.00 | 0.00 | 0.00 | 48 | 1015.7 |
| 20260505214534 | 77 | 202 | 6.0 | 11.0 | 0.00 | 0.00 | 0.00 | 49 | 1015.8 |
| 20260505213143 | 76 | 211 | 6.0 | 14.0 | 0.00 | 0.00 | 0.00 | 49 | 1015.9 |
| 20260505210030 | 75 | 212 | 6.0 | 13.0 | 0.00 | 0.00 | 0.00 | 50 | 1016.2 |
| 20260505204531 | 74 | 204 | 6.0 | 15.0 | 0.00 | 0.00 | 0.00 | 50 | 1016.2 |
| 20260505203037 | 74 | 214 | 6.0 | 13.0 | 0.00 | 0.00 | 0.00 | 51 | 1016.4 |
| 20260505201610 | 73 | 211 | 7.0 | 13.0 | 0.00 | 0.00 | 0.00 | 52 | 1016.5 |
| 20260505200041 | 72 | 204 | 7.0 | 21.0 | 0.00 | 0.00 | 0.00 | 53 | 1016.5 |
| 20260505194535 | 71 | 210 | 8.0 | 18.0 | 0.00 | 0.00 | 0.00 | 55 | 1016.6 |
| 20260505191642 | 70 | 218 | 6.0 | 10.0 | 0.00 | 0.00 | 0.00 | 56 | 1016.8 |
| 20260505190106 | 69 | 209 | 7.0 | 15.0 | 0.00 | 0.00 | 0.00 | 56 | 1016.9 |
| 20260505184535 | 68 | 207 | 7.0 | 15.0 | 0.00 | 0.00 | 0.00 | 58 | 1016.9 |
| 20260505183036 | 67 | 205 | 6.0 | 14.0 | 0.00 | 0.00 | 0.00 | 59 | 1017.0 |
| 20260505181611 | 67 | 204 | 8.0 | 16.0 | 0.00 | 0.00 | 0.00 | 59 | 1017.0 |
| 20260505174643 | 65 | 202 | 8.0 | 18.0 | 0.00 | 0.00 | 0.00 | 61 | 1017.1 |
| 20260505170106 | 63 | 206 | 9.0 | 16.0 | 0.00 | 0.00 | 0.00 | 63 | 1017.0 |
| 20260505164532 | 63 | 200 | 8.0 | 18.0 | 0.00 | 0.00 | 0.00 | 63 | 1017.0 |
| 20260505163149 | 63 | 205 | 8.0 | 21.0 | 0.00 | 0.00 | 0.00 | 62 | 1016.9 |
| 20260505161536 | 63 | 198 | 7.0 | 17.0 | 0.00 | 0.00 | 0.00 | 62 | 1016.9 |
| 20260505153028 | 62 | 200 | 7.0 | 18.0 | 0.00 | 0.00 | 0.00 | 63 | 1016.9 |
| 20260505124535 | 56 | 157 | 5.0 | 12.0 | 0.00 | 0.00 | 0.00 | 77 | 1016.2 |
| 20260505123032 | 57 | 175 | 5.0 | 11.0 | 0.00 | 0.00 | 0.00 | 77 | 1016.2 |
| 20260505120031 | 57 | 166 | 5.0 | 18.0 | 0.00 | 0.00 | 0.00 | 76 | 1016.1 |
| 20260505114532 | 58 | 184 | 5.0 | 13.0 | 0.00 | 0.00 | 0.00 | 75 | 1016.0 |
| 20260505113037 | 58 | 174 | 7.0 | 25.0 | 0.00 | 0.00 | 0.00 | 75 | 1015.9 |
| 20260505111531 | 58 | 193 | 12.0 | 21.0 | 0.00 | 0.00 | 0.00 | 75 | 1015.9 |
| 20260505101534 | 59 | 182 | 7.0 | 21.0 | 0.00 | 0.00 | 0.00 | 74 | 1015.4 |
| 20260505100045 | 60 | 178 | 8.0 | 22.0 | 0.00 | 0.00 | 0.00 | 73 | 1015.4 |
| 20260505094535 | 60 | 196 | 8.0 | 18.0 | 0.00 | 0.00 | 0.00 | 73 | 1015.3 |
| 20260505093037 | 60 | 191 | 8.0 | 23.0 | 0.00 | 0.00 | 0.00 | 73 | 1015.2 |
| 20260505091535 | 61 | 181 | 7.0 | 21.0 | 0.00 | 0.00 | 0.00 | 73 | 1015.1 |
| 20260505090030 | 61 | 183 | 6.0 | 19.0 | 0.00 | 0.00 | 0.00 | 72 | 1015.1 |
| 20260505084606 | 0 | 0 | 0.0 | 0.0 | 0.00 | 0.00 | 0.00 | 100 | |
| 20260505083035 | 62 | 195 | 6.0 | 18.0 | 0.00 | 0.00 | 0.00 | 72 | 1014.8 |
| 20260505080036 | 62 | 181 | 5.0 | 13.0 | 0.00 | 0.00 | 0.00 | 72 | 1014.8 |
| 20260505074535 | 62 | 169 | 6.0 | 12.0 | 0.00 | 0.00 | 0.00 | 72 | 1014.8 |
| 20260505073036 | 63 | 181 | 6.0 | 17.0 | 0.00 | 0.00 | 0.00 | 72 | 1014.7 |
| 20260505071608 | 62 | 175 | 5.0 | 12.0 | 0.00 | 0.00 | 0.00 | 72 | 1014.6 |
| 20260505070031 | 62 | 156 | 5.0 | 11.0 | 0.00 | 0.00 | 0.00 | 71 | 1014.5 |
| 20260505064534 | 63 | 142 | 4.0 | 9.0 | 0.00 | 0.00 | 0.00 | 71 | 1014.4 |
| 20260505063033 | 0 | 0 | 0.0 | 0.0 | 0.00 | 0.00 | 0.00 | 100 | |
| 20260505061535 | 0 | 0 | 0.0 | 0.0 | 0.00 | 0.00 | 0.00 | 100 | |
| 20260505060036 | 63 | 159 | 3.0 | 10.0 | 0.00 | 0.00 | 0.00 | 67 | 1014.6 |
| 20260505054607 | 64 | 168 | 4.0 | 11.0 | 0.00 | 0.00 | 0.00 | 66 | 1014.5 |
| 20260505051537 | 64 | 187 | 7.0 | 15.0 | 0.00 | 0.00 | 0.00 | 64 | 1014.4 |
| 20260505041536 | 65 | 173 | 6.0 | 19.0 | 0.00 | 0.00 | 0.00 | 58 | 1013.9 |
| 20260505040048 | 67 | 178 | 4.0 | 6.0 | 0.00 | 0.00 | 0.00 | 54 | 1013.6 |
| 20260505034534 | 67 | 192 | 7.0 | 20.0 | 0.00 | 0.00 | 0.00 | 52 | 1013.3 |
| 20260505033030 | 68 | 197 | 8.0 | 18.0 | 0.00 | 0.00 | 0.00 | 50 | 1013.1 |
| 20260505031533 | 68 | 194 | 6.0 | 11.0 | 0.00 | 0.00 | 0.00 | 48 | 1012.9 |
| 20260505030037 | 69 | 192 | 4.0 | 12.0 | 0.00 | 0.00 | 0.00 | 47 | 1012.7 |
| 20260505024533 | 71 | 185 | 6.0 | 15.0 | 0.00 | 0.00 | 0.00 | 46 | 1012.5 |
| 20260505023030 | 72 | 187 | 5.0 | 12.0 | 0.00 | 0.00 | 0.00 | 46 | 1012.4 |
| 20260505021532 | 73 | 205 | 6.0 | 15.0 | 0.00 | 0.00 | 0.00 | 45 | 1012.4 |
| 20260505020036 | 74 | 197 | 8.0 | 17.0 | 0.00 | 0.00 | 0.00 | 43 | 1012.3 |
| 20260505014537 | 75 | 216 | 5.0 | 14.0 | 0.00 | 0.00 | 0.00 | 42 | 1012.2 |
| 20260505013033 | 76 | 207 | 5.0 | 16.0 | 0.00 | 0.00 | 0.00 | 41 | 1012.1 |
| 20260505011533 | 76 | 221 | 5.0 | 15.0 | 0.00 | 0.00 | 0.00 | 40 | 1012.1 |
| 20260505010037 | 77 | 225 | 7.0 | 14.0 | 0.00 | 0.00 | 0.00 | 38 | 1012.1 |
| 20260505004534 | 78 | 215 | 6.0 | 11.0 | 0.00 | 0.00 | 0.00 | 37 | 1012.1 |
| 20260505003032 | 79 | 224 | 6.0 | 15.0 | 0.00 | 0.00 | 0.00 | 35 | 1012.0 |
| 20260505001535 | 80 | 225 | 6.0 | 13.0 | 0.00 | 0.00 | 0.00 | 35 | 1011.9 |
| 20260505000042 | 80 | 234 | 7.0 | 20.0 | 0.00 | 0.00 | 0.00 | 34 | 1012.0 |